Weather in Chineyevo

Russia / Kurgan Oblast     55°28′28″N   64°38′49″E
В апреле 2022 года жителям России запретили посещать сайт meteo.paraplan.net по решению Генеральной прокуратуры. Аудитория сайта уменьшилась в 10 раз. Владельцы сайта не видят смысла в поддержке погодного сервера в таких условиях. Сайт будет закрыт в октябре.
temp.,
°C
wind,
m/s
gust,
m/s
humid.,
%
clouds,
%
prec.,
mm/h
press.,
hPa
HPBL,
m
25 september, sun
sun2523:00+20sw3635100 0.0 1011107
02:00+19n114123 0.0 100918
05:00+14ne356793 0.0 1010105
08:00+14ne4872100 0.2 1010264
11:00+17ne675683 0.2 1010644
14:00+18ene785298 0.0 1011931
17:00+13ene71176100 0.8 1011606
20:00+9ene7138596 0.2 1012540
26 september, mon
mon2623:00+7ene81586100 0.2 1011485
02:00+7ene71384100 0.4 1010533
05:00+5e81691100 2.2 1008638
08:00+5e81692100 3.3 1006681
11:00+4ene71494100 11.2 1006765
14:00+2ene61497100 6.3 1006591
17:00+2ne61297100 7.6 1007574
20:00+1ne51197100 1.4 1008547
27 september, tue
tue2723:00+1nne51197100 2.4 1010563
02:00+1n51198100 1.1 1011497
05:000n51197100 1.7 1012577
08:00−1n5119381 0.4 1014476
11:00+1nne578377 0.4 1015673
14:00+2nne567699 0.0 1017994
17:00+2nne467658 0.1 1018982
20:00−1n249127 0.0 101967
28 september, wed
wed2823:00−1n2587100 0.0 102095
02:00−3n259082 0.0 1021107
05:00−3n2588100 0.0 1022147
08:00−2nne258720 0.0 1023157
11:00+1n3473100 0.0 1024795
14:00+2n3471100 0.1 1024944
17:00+2n3575100 0.4 1024821
20:000n378795 0.3 1026231
29 september, thu
thu2923:00−3n38925 0.3 1027181
02:00−4n26925 0.0 1028143
05:00−4nnw37925 0.0 1029175
08:00−3n37875 0.0 1029243
11:00+1nne457096 0.0 10301040
14:00+2nne4566100 0.1 10301206
17:00+2ne356873 0.1 10311019
20:00−2nne11865 0.0 103311